Location: Unspecified
(0.0000°N, 0.0000°E)
Time: 17:52:44
(UTC+00:00)

STARLINK 1061 - Pass Details

Date: 16 January 2020
Orbit: 549 x 551 km, 53.0° (Epoch: 22 January)

Event Time Altitude Azimuth Distance (km) Brightness Sun altitude
Rises 19:17:01 0° 313° (NW) 2,707 7.5 -15.7°
Reaches altitude 10° 19:19:21 10° 305° (NW) 1,818 6.7 -16.2°
Maximum altitude 19:23:11 38° 236° (SW) 851 5.2 -17.1°
Drops below altitude 10° 19:27:04 10° 167° (SSE) 1,829 6.4 -18.0°
Sets 19:29:26 0° 159° (SSE) 2,727 7.2 -18.6°
